Location: Go?cza
(50.3372°N, 19.9313°E)
Time: 01:25:34
(UTC+00:00)

SJ 16-02 - Pass Details

Date: 23 May 2024
Orbit: 594 x 606 km, 75.0° (Epoch: 18 June)

Event Time Altitude Azimuth Distance (km) Brightness Sun altitude
Exits shadow 01:40:36 10° 213° (SSW) 1,904 3.2 -8.3°
Maximum altitude 01:44:48 63° 295° (WNW) 669 1.5 -7.8°
Drops below altitude 10° 01:49:06 10° 17° (NNE) 1,941 5.0 -7.4°
Sets 01:51:21 0° 21° (NNE) 2,848 6.2 -7.1°
